STARLINK-35694 (66389 NORAD) Tracking and Keplerian Element Data

This shows tracking and keplerian element data for the satellite.

Feedback or suggestion? Click here.




ElementValue
Catalog66389
NameSTARLINK-35694
Epoch Orbit602
Epoch Day354.25003472
Epoch Year2025
RAAN229.0057
Inclination53.1577
Eccentricity0.0001165
Argument of Perigee83.0658
Mean Anonmoly99.4362
Mean Motion15.39624099
Decay Rate-4.473E-05
L11 66389U 25257K 25354.25003472 -.00004473 00000+0 -10189-3 0 9996
L22 66389 53.1577 229.0057 0001165 83.0658 99.4362 15.39624099 6029



Live tracking and technical data element details for STARLINK-35694 (NORAD 66389). STARLINK-35694 can be tracked NOW for your location showing map with azimuth and elevation plus other details from your city location.







IsCatalogInMostPopularTable: catalog: 66389, numindb: 4
Update: records affected: 1



GetName: 66389 STARLINK-35694

Hit Count: updated at: Tue, 10 Feb 2026 03:02:04 GMT